www.pogodaiklimat.ru

Погода и климат >> Архив погоды >> Таиланд >> У-Тхонг Агромет


ПОГОДА в У-Тхонг Агромете

  • Прогноз погоды в У-Тхонг Агромете
  • Монитор погоды в У-Тхонг Агромете

АРХИВ ПОГОДЫ в У-Тхонг Агромете

Время (UTC), дата Ветер
(напр.,м/с)
 
Видим.   Явления Облачность Т
(С)
Тd
(С)
f
(%)
Тe
(С)
Тes
(С)
Комфортность P
(гПа)
Po
(гПа)
Тmin
(С)
Tmax
(С)
R
(мм)
R24
(мм)
S
(см)
12 16.05 штиль 0 6000 м дымка 10/3 600 м
[Cu med, cong Cs]
+30.0 +25.0 75 +43 +43 опасность
перегрева
1007.0 1006.2 +34.8
15 16.05 штиль 0 5000 м дымка 10/0
[Cs]
+27.6 +24.6 84 +39 +39 очень
душно
1009.2 1008.4
18 16.05 штиль 0 4000 м дымка 10/0
[Cs]
+27.2 +24.0 83 +38 +38 очень
душно
1007.7 1006.9
21 16.05 штиль 0 3000 м дымка 10/0
[Cs]
+26.5 +25.1 92 +38 +38 очень
душно
1007.0 1006.2
00 17.05 штиль 0 8000 м дымка 10/0
[Cs]
+26.9 +22.8 78 +36 +37 очень
душно
1008.0 1007.2 +25.6
03 17.05 штиль 0 9000 м мгла 8/0
[Cs]
+33.0 +23.3 57 +44 +61 опасность
перегрева
1008.6 1007.8
06 17.05 штиль 0 9000 м мгла 8/3 600 м
[Cu med, cong Cs]
+36.4 +23.6 48 +47 +65 опасность
перегрева
1006.8 1006.0
09 17.05 штиль 0 9000 м мгла 8/0
[Cs]
+36.9 +23.7 47 +48 +57 опасность
перегрева
1003.6 1002.9
12 17.05 штиль 0 8000 м мгла 10/0
[Cs]
+33.2 +22.8 55 +43 +43 опасность
перегрева
1005.2 1004.4 +37.2
15 17.05 штиль 0 7000 м дымка 10/0
[Cs]
+28.2 +24.8 82 +40 +40 очень
душно
1007.4 1006.6
18 17.05 штиль 0 6000 м дымка 10/0
[Cs]
+27.1 +24.5 86 +38 +38 очень
душно
1006.2 1005.4
21 17.05 штиль 0 6000 м дымка 10/0
[Cs]
+26.6 +23.4 83 +36 +36 очень
душно
1005.1 1004.4
00 18.05 штиль 0 8000 м дымка 10/0
[Cs]
+26.9 +22.9 79 +36 +37 очень
душно
1006.8 1006.0 +26.1
03 18.05 штиль 0 9000 м мгла 10/0
[Cs]
+33.0 +23.8 59 +45 +61 опасность
перегрева
1007.9 1007.2
06 18.05 штиль 0 9000 м мгла 8/1 600 м
[Cu med, cong Cs]
+35.1 +22.2 47 +44 +66 опасность
перегрева
1005.8 1005.0
09 18.05 штиль 0 9000 м мгла 8/1 600 м
[Cu med, cong Cs]
+36.5 +21.8 43 +45 +53 опасность
перегрева
1003.5 1002.7
12 18.05 ЮЗ 2 9000 м мгла 8/1 600 м
[Cu med, cong Cs]
+34.1 +23.2 53 +44 +44 опасность
перегрева
1003.9 1003.2 +37.5
15 18.05 штиль 0 8000 м дымка 4/0
[Cs]
+30.1 +22.8 65 +40 +40 очень
душно
1007.0 1006.2
18 18.05 штиль 0 8000 м дымка 3/0
[Cs]
+28.6 +23.2 73 +39 +39 очень
душно
1006.7 1005.9
21 18.05 штиль 0 8000 м дымка 3/0
[Cs]
+27.4 +23.2 78 +37 +37 очень
душно
1005.5 1004.8
00 19.05 ЮЗ 2 8000 м дымка 3/0
[Cs]
+28.2 +22.1 70 +37 +38 очень
душно
1007.4 1006.7 +27.2
03 19.05 штиль 0 9000 м мгла 4/0
[Cs]
+32.7 +23.2 57 +43 +62 опасность
перегрева
1008.9 1008.1
06 19.05 ЮЗ 2 9000 м мгла 4/0
[Cs]
+35.5 +21.6 45 +44 +63 опасность
перегрева
1006.9 1006.2
09 19.05 штиль 0 9000 м мгла 4/0
[Cs]
+39.0 +20.8 35 +45 +55 опасность
перегрева
1003.8 1003.0
12 19.05 штиль 0 6000 м мгла 4/0
[Cs]
+33.3 +24.3 59 +45 +45 опасность
перегрева
1005.4 1004.7 +38.5
15 19.05 штиль 0 5000 м дымка 3/0
[Cs]
+28.0 +24.6 82 +40 +40 очень
душно
1008.2 1007.4
18 19.05 штиль 0 4000 м дымка 8/0
[Cs]
+28.6 +24.9 80 +41 +41 опасность
перегрева
1007.4 1006.7
21 19.05 ЮЗ 2 3000 м дымка 8/0
[Cs]
+29.4 +23.1 69 +39 +39 очень
душно
1006.4 1005.6
00 20.05 штиль 0 8000 м дымка 8/0
[Cs]
+29.0 +23.9 74 +40 +42 очень
душно
1007.6 1006.9 +27.7
03 20.05 штиль 0 9000 м мгла 8/0
[Cs]
+33.5 +23.4 56 +44 +62 опасность
перегрева
1009.1 1008.3
06 20.05 штиль 0 9000 м мгла 8/0
[Cs]
+36.6 +24.8 51 +50 +74 опасность
перегрева
1007.0 1006.3
09 20.05 штиль 0 9000 м мгла 8/0
[Cs]
+38.1 +24.6 46 +50 +59 опасность
перегрева
1005.2 1004.5
12 20.05 штиль 0 8000 м мгла 10/0
[Cs]
+32.2 +24.4 63 +44 +44 опасность
перегрева
1006.8 1006.1 +39.4
15 20.05 штиль 0 7000 м дымка 10/0
[Ac trans Cs]
+28.7 +23.8 75 +40 +40 очень
душно
1008.2 1007.4
18 20.05 штиль 0 6000 м дымка 8/0
[Cs]
+28.2 +23.9 78 +39 +39 очень
душно
1007.0 1006.2
21 20.05 штиль 0 5000 м дымка 8/0
[Cs]
+27.5 +24.3 83 +39 +39 очень
душно
1006.8 1006.0
00 21.05 штиль 0 7000 м дымка 8/0
[Cs]
+28.5 +24.2 78 +40 +41 очень
душно
1008.0 1007.2 +26.5
03 21.05 штиль 0 9000 м мгла 8/0
[Cs]
+33.4 +23.5 56 +44 +62 опасность
перегрева
1008.8 1008.1
06 21.05 штиль 0 9000 м мгла 4/1 600 м
[Cu med, cong Cs]
+37.0 +24.3 48 +49 +73 опасность
перегрева
1006.8 1006.0
09 21.05 штиль 0 9000 м мгла 4/1 600 м
[Cu med, cong Cs]
+37.9 +24.6 47 +50 +60 опасность
перегрева
1003.6 1002.8
12 21.05 Ю 4 8000 м мгла 8/4 600 м
[Cu Sc Cs]
+32.0 +23.5 61 +43 +43 опасность
перегрева
1005.6 1004.9 +38.4
15 21.05 Ю 2 8000 м дымка 8/1 600 м
[Cu med, cong Cs]
+28.5 +23.4 74 +39 +39 очень
душно
1008.2 1007.4
18 21.05 штиль 0 7000 м дымка 9/3 600 м
[Cu med, cong Cs]
+28.4 +25.0 82 +41 +41 опасность
перегрева
1008.5 1007.7
21 21.05 СВ 10 6000 м дымка 10/4 600 м
[Cb calv As op Cs]
+27.1 +24.9 88 +39 +39 очень
душно
1008.8 1008.0
00 22.05 штиль 0 8000 м дымка 10/1 600 м
[Cu med, cong Cs]
+26.6 +23.5 83 +36 +37 очень
душно
1009.2 1008.4 +25.5
03 22.05 штиль 0 9000 м дымка 10/0
[Cs]
+30.2 +24.0 69 +42 +58 опасность
перегрева
1009.9 1009.2
06 22.05 В 4 9000 м дымка 10/3 600 м
[Cu med, cong Cs]
+32.5 +25.5 67 +47 +55 опасность
перегрева
1007.8 1007.0
09 22.05 З 4 9000 м гроза без осадков 10/4 600 м
[Cb cap Cs]
+28.6 +21.9 67 +37 +40 очень
душно
1006.5 1005.8
12 22.05 штиль 0 6000 м слаб. дождь {гроза} 10/4 300 м
[Cb cap Cs]
+25.0 +24.3 96 +35 +35 очень
душно
1008.1 1007.3 +34.0 3
15 22.05 штиль 0 5000 м дымка {дождь} 10/0
[Cs]
+25.6 +24.7 95 +36 +36 очень
душно
1009.4 1008.6 2
18 22.05 штиль 0 4000 м дымка 8/0
[Cs]
+25.7 +24.7 94 +36 +36 очень
душно
1008.5 1007.7 5
21 22.05 штиль 0 3000 м дымка 8/0
[Cs]
+25.5 +24.8 96 +36 +36 очень
душно
1007.7 1006.9
00 23.05 штиль 0 8000 м дымка 8/0
[Cs]
+26.0 +24.8 93 +37 +38 очень
душно
1008.9 1008.1 +24.5 5
03 23.05 штиль 0 9000 м дымка 10/3 600 м
[Cu med, cong Cs]
+32.2 +24.8 65 +45 +57 опасность
перегрева
1009.6 1008.8
06 23.05 штиль 0 9000 м мгла 10/4 600 м
[Cu med, cong Cs]
+34.0 +24.3 57 +46 +60 опасность
перегрева
1007.0 1006.3
09 23.05 штиль 0 8000 м слаб. дождь 10/3 600 м
[Sc Cs]
+28.1 +25.3 85 +41 +47 опасность
перегрева
1006.7 1005.9 0.4

 

Местоположение метеостанции У-Тхонг Агромет (Таиланд): широта 14.30 долгота 99.87 высота над уровнем моря 7 м.

В архиве по умолчанию представлена погода в У-Тхонг Агромете за последнюю неделю. Архивные данные за месяц целиком и за предыдущие месяцы, начиная с января 2011 года, Вы можете получить, выбрав интересующий диапазон дат из раскрывающегося списка и нажав кнопку "Ввод!".


*Определитесь, кто Вы:
робот инопланетянин человек

Внимание! Время в таблицах - всемирное. Для получения местного времени необходимо прибавить поправку, которая равна 7 ч.

Смотрите также архив погоды в соседних городах и на ближайших метеорологических станциях:

Погода в Накхонпатхоме (Таиланд) (33 км)
Погода в Суфанбури (Таиланд) (34 км)
Погода в Канчанабури (Таиланд) (48 км)
Погода в Патхумтхани (Таиланд) (84 км)
Погода в Дон Муанг (Таиланд) (89 км)
Погода в Аюттхая (Таиланд) (95 км)
Погода в Лопбури (Таиланд) (97 км)
Погода в Бангкоке (Таиланд) (98 км)
Погода в Чайнат Агромете (Таиланд) (100 км)
Погода в Самутсонгкхраме (Таиланд) (100 км)

Пояснения к столбцам:

Ветер - указаны скорость ветра в м/с - средняя за 10 мин, порывы в срок и между сроками (в фигурных скобках) и направление, откуда дует ветер: С - северный, СВ - северо-восточный, В - восточный, ЮВ - юго-восточный, Ю - южный, ЮЗ - юго-западный, З - западный, СЗ - северо-западный.
Видимость - горизонтальная дальность видимости в метрах или километрах. При видимости от 1 до 10 км при отсутствии осадков обычно наблюдается дымка, при ухудшении видимости до 1 км и менее - туман. В сухую погоду видимость может ухудшаться дымом, пылью или мглою.
Явления - указаны атмосферные явления, наблюдавшиеся в срок или в последний час перед сроком; фигурными скобками обозначены явления, наблюдавшиеся между сроками (за 1-3 часа до срока); квадратными скобками обозначены град или гололедные отложения с указанием их диаметра в мм.
Облачность - указаны через наклонную черту общая и нижняя облачность в баллах и высота нижней границы облаков в метрах; квадратными скобками обозначены формы облаков: Ci - перистые, Cs - перисто-слоистые, Cc - перисто-кучевые, Ac - высококучевые, As - высокослоистые, Sc - слоисто-кучевые, Ns - слоисто-дождевые, Cu - кучевые, Cb - кучево-дождевые. Подробнее классификацию облаков см. в Атласе облаков (PDF).
T - Температура воздуха - температура, измеренная на высоте 2 м над землей.
Td - Температура точки росы - температура, при понижении до которой содержащийся в воздухе водяной пар достигнет насыщения.
f - Относительная влажность воздуха - влажноcть воздуха, измеренная на высоте 2 м над землей.
Te - Эффективная температура - температура, которую ощущает одетый по сезону человек в тени. Характеристика душности погоды. При расчете учитывается влияние влажности воздуха и скорости ветра на теплоощущения человека.
Tes - Эффективная температура на солнце - температура, которую ощущает человек, с поправкой на солнечный нагрев. Характеристика знойности погоды. Зависит от высоты солнца над горизонтом, облачности и скорости ветра. Ночью, в пасмурную погоду, а также при ветре 12 м/с и более поправка равна нулю.
P - Атмосферное давление - приведенное к уровню моря атмосферное давление.
Po - Атмосферное давление - измеренное на уровне метеостанции атмосферное давление.
Tmin - Минимальная температура - минимум температуры воздуха на высоте 2 м над землей.
Tmax - Максимальная температура - максимум температуры воздуха на высоте 2 м над землей.
R - Количество осадков - Количество выпавших осадков за период времени, мм. При наведении курсора мыши на число - период времени, за который выпало указанное количество осадков.
R24 - Количество осадков - Количество выпавших осадков за 24 часа, мм.
S - Снежный покров - Высота снежного покрова, см. При наведении курсора мыши на число - состояние снежного покрова и степень покрытия местности в баллах.